Regional Weather Roundup
Issued by NWS

Home | Current Version | Previous Version | Text Only | Print | Product List | Glossary Off
Versions: 1 2 3 4 5 6 7 8 9 10 11 12 13 14 15 16 17 18 19 20 21 22 23 24 25 26 27 28 29 30 31 32 33 34 35 36 37 38 39 40 41 42 43 44 45 46 47 48 49 50

000
ASUS43 KMKX 240521
RWRWI

WISCONSIN REGIONAL WEATHER ROUNDUP
NATIONAL WEATHER SERVICE MILWAUKEE/SULLIVAN WI
1200 AM CDT SUN SEP 24 2017

NOTE: "FAIR" INDICATES FEW OR NO CLOUDS BELOW 12,000 FEET WITH NO
SIGNIFICANT WEATHER AND/OR OBSTRUCTIONS TO VISIBILITY.

WIZ001-002-006>008-014>016-023>028-240600-
NORTHWEST WISCONSIN

CITY           SKY/WX    TMP DP  RH WIND       PRES   REMARKS
SUPERIOR ARPT  CLOUDY    67  65  95 NE6       29.96F
ASHLAND        CLOUDY    69  67  93 E3        29.98S
HAYWARD        CLOUDY    71  67  87 CALM      29.98R
SIREN          CLOUDY    73  68  83 NW7       29.96R
CUMBERLAND     CLOUDY    70  64  83 S6        29.98S
RICE LAKE      CLOUDY    73  66  79 SE5       30.00R
CHETEK         CLOUDY    73  67  84 S6        29.99S
LADYSMITH      PTCLDY    75  65  71 SE6       30.02S
EAU CLAIRE     CLOUDY    75  65  70 S8        29.98R
MENOMONIE      CLOUDY    72  67  83 E6        29.98S
NEW RICHMOND   PTCLDY    74  63  68 S8        29.97S
OSCEOLA        MOCLDY    75  65  70 S7        29.98R
$$

WIZ003>005-009-010-017-018-240600-
NORTH CENTRAL WISCONSIN

CITY           SKY/WX    TMP DP  RH WIND       PRES   REMARKS
MANITOWISH WTR MOCLDY    64  64 100 S5        30.04S
ARBOR VITAE    PTCLDY    72  67  84 S3        30.04S
WOODRUFF       PTCLDY    72  67  84 S3        30.04S
RHINELANDER    CLEAR     72  66  81 S3        30.06F
EAGLE RIVER    PTCLDY    67  65  94 CALM      30.05F
LAND O LAKES     N/A     63  63 100 CALM      30.07S FOG
PHILLIPS       PTCLDY    73  66  80 S7        30.02S
TOMAHAWK       CLEAR     65  63  94 CALM      30.05S
MEDFORD        CLEAR     66  63  89 S8        30.03F
MERRILL        PTCLDY    65  65 100 CALM      30.05F
$$

WIZ029-030-035-036-043>047-240600-
CENTRAL WISCONSIN

CITY           SKY/WX    TMP DP  RH WIND       PRES   REMARKS
WAUSAU         PTCLDY    67  65  93 E6        30.04R
MOSINEE        PTCLDY    68  63  83 SE6       30.06S
MARSHFIELD     PTCLDY    70  62  76 S3        30.04S
STEVENS POINT  PTCLDY    67  65  93 CALM      30.06S
WAUPACA        PTCLDY    70  68  95 CALM      30.06R
WAUTOMA        NOT AVBL
WISC RAPIDS    CLEAR     71  63  75 SE6       30.05S
CAMP DOUGLAS   CLEAR     63  63 100 S6        30.03R
$$

WIZ011>013-019>022-031-037>040-048>050-240600-
NORTHEAST WISCONSIN

CITY           SKY/WX    TMP DP  RH WIND       PRES   REMARKS
ANTIGO         CLOUDY    69  65  88 S6        30.08S
SHAWANO        PTCLDY    74  66  76 CALM      30.05S
OCONTO         CLEAR     67  65  96 CALM      30.05R
STURGEON BAY   CLEAR     74  66  76 S7        30.07R
GREEN BAY      CLEAR     71  67  87 S5        30.06R
MANITOWOC      CLEAR     66  64  93 E3        30.07S FOG
APPLETON       CLEAR     72  63  73 SE5       30.05S
CLINTONVILLE   PTCLDY    68  64  88 CALM      30.05S
OSHKOSH        CLEAR     70  66  87 S3        30.06R
$$

WIZ032>034-041-042-053>061-240600-
SOUTHWEST WISCONSIN

CITY           SKY/WX    TMP DP  RH WIND       PRES   REMARKS
LA CROSSE      CLEAR     74  66  76 CALM      29.99R
SPARTA         CLEAR     65  64  93 CALM      30.02S
VIROQUA        CLEAR     74  64  69 SE6       30.04S
BOSCOBEL       CLEAR     67  65  93 CALM      30.02S
PRAIRIE DU CHI CLEAR     73  63  68 CALM      30.01S
PLATTEVILLE    CLEAR     73  65  76 SE7       30.04S
$$

WIZ056-057-062-063-064-067-068-240600-
SOUTH CENTRAL WISCONSIN

CITY           SKY/WX    TMP DP  RH WIND       PRES   REMARKS
REEDSBURG      CLEAR     68  67  98 CALM      30.04S
BARABOO/DELLS  CLEAR     72  62  69 S3        30.05S
LONE ROCK      CLEAR     66  64  93 E3        30.03S
MINERAL POINT  CLEAR     73  64  73 SE5       30.06R
MADISON        CLEAR     75  66  73 CALM      30.05R
MIDDLETON      CLEAR     68  64  88 CALM      30.06S
WATERTOWN      CLEAR     70  66  88 CALM      30.06R
MONROE         CLEAR     73  61  64 SE6       30.06S
JANESVILLE     CLEAR     72  63  73 SE3       30.05S
$$

WIZ051-052-058>065-066-070>072-240600-
SOUTHEAST WISCONSIN

CITY           SKY/WX    TMP DP  RH WIND       PRES   REMARKS
MILWAUKEE      CLEAR     75  66  73 S7        30.07R
WAUKESHA       CLEAR     72  61  68 CALM      30.09R
MILWAUKEE/TIMM CLEAR     70  61  73 CALM      30.08R
RACINE         CLEAR     75  69  81 S5        30.09R
BURLINGTON     CLEAR     65  65 100 CALM      30.07S
KENOSHA        CLEAR     73  65  75 S5        30.08R
FOND DU LAC    CLEAR     71  64  78 CALM      30.06R
SHEBOYGAN      CLEAR     64  64 100 CALM      30.07S FOG
WEST BEND        N/A     64  64 100 CALM      30.08R
JUNEAU         CLEAR     71  65  81 SE5       30.08R
$$

LSZ147-162-240600-
LAKE SUPERIOR

STATION/POSITION TIME  TEMP    WIND        PRES    WAVE
                       AIR SEA DIR/SP/G            HT/PER
                 (UTC) (F)     (DEG/KT/KT) (MB)    (FT/S)
W MID LAKE BUOY  0450   60 56   30/  6/  6 1014.6F   0
DEVILS ISLAND    0500   66      50/  7/  7 1014.9S
SAXON HARBOR     0440   69     150/  3/  3 1014.2F
$$

LMZ867-665-643>646-240600-
LAKE MICHIGAN

STATION/POSITION TIME  TEMP    WIND        PRES    WAVE
                       AIR SEA DIR/SP/G            HT/PER
                 (UTC) (F)     (DEG/KT/KT) (MB)    (FT/S)
S GREEN BAY BUOY 0300   74 69  180/ 10/ 10 1016.7
N MID LAKE BUOY  0450   69 67  200/  6/  6 1018.1R   1/ 4
NORTHPORT PIER   0440   76     180/  3/  8 1017.3R
KEWAUNEE LAKESHO 0454   65     160/  4/  5 1017.1R
SHEBOYGAN LAKESH 0500   69     140/  5/  5 1017.7R
PORT WASHINGTON  0440   70      CALM  /  1 1018.6S
ATWATER BUOY     0409   70 66  160/  6/  6 1018.2R
MILWAUKEE LAKESH 0500   71      70/  1/  1   N/A
S MID LAKE BUOY  0450   74 71  100/  8/  8 1018.3S   0
KENOSHA   LAKESH 0500   75     180/  7/  9 1017.9
$$

TC  - TEMPERATURE IN CELSIUS
VSB - VISIBILITY IN STATUTE MILES
WCI - WIND CHILL INDEX
HX  - HEAT INDEX




USA.gov is the U.S. government's official web portal to all federal, state and local government web resources and services.